Location: McFarlands Corners
(41.4117°N, 81.3382°W)
Time: 16:33:51
(UTC+00:00)

SR - Pass Details

Date: 20 February 2026
Orbit: 572 x 849 km, 66.7° (Epoch: 12 March)

Event Time Altitude Azimuth Distance (km) Brightness Sun altitude
Rises 17:55:09 0° 332° (NNW) 3,095 ? 37.7°
Reaches altitude 10° 17:57:26 10° 334° (NNW) 2,217 ? 37.7°
Maximum altitude 18:02:31 71° 59° (ENE) 811 ? 37.6°
Drops below altitude 10° 18:07:58 10° 143° (SE) 2,375 ? 37.4°
Sets 18:10:29 0° 146° (SE) 3,334 ? 37.4°
